Date String (YYYY-MM-DD hh:mm:ss) UTC,Instrument flags,Ambient pressure (hPa),Sample flow (lpm),Bypass flow (lpm),Sample temperature (°C),Ambient temperature (°C),ASC tube jacket temperature (°C),LED temperature (°C),Box temperature (°C),Sample RH (%),Span deviation,Mass concentration (μg/m³),Mass concentration (μg/m³),Mass concentration (μg/m³)
DateTimeUTC,F1_M11,P_M11,Q1_M11,Q2_M11,T1_M11,T2_M11,T3_M11,T4_M11,T5_M11,U1_M11,ZSPAN_M11,X0_M11,X2_M11,X1_M11
2021-09-10 17:00:00,,0830.3,5.00,0.00,29.4,28.2,00.0,38.4,31.3,14.1,-001.7,0032.98,0018.80,0017.36
2021-09-10 17:01:00,,0830.3,5.01,0.00,29.5,28.1,00.0,38.4,31.3,14.5,-001.5,0033.54,0018.78,0017.36
2021-09-10 17:02:00,,0830.3,5.00,0.00,29.4,26.6,00.0,38.4,30.8,15.6,-001.8,0033.62,0018.74,0017.36
2021-09-10 17:03:00,,0830.3,5.00,0.00,29.2,26.0,00.0,38.4,30.6,15.8,-002.0,0032.68,0018.63,0017.34
2021-09-10 17:04:00,,0830.2,5.01,0.00,29.2,26.5,00.0,38.4,30.8,15.0,-001.9,0032.92,0018.61,0017.32
2021-09-10 17:05:00,,0830.2,4.98,0.00,29.2,26.9,00.0,38.3,30.9,15.6,-001.8,0032.64,0018.58,0017.30
2021-09-10 17:06:00,,0830.3,5.01,0.00,29.2,27.3,00.0,38.3,31.0,15.9,-001.6,0031.72,0018.53,0017.28
2021-09-10 17:07:00,,0830.2,4.99,0.00,29.3,27.7,00.0,38.3,31.1,15.9,-001.5,0031.77,0018.55,0017.26
2021-09-10 17:08:00,,0830.3,5.00,0.00,29.3,28.0,00.0,38.3,31.2,16.0,-001.0,0031.98,0018.56,0017.26
2021-09-10 17:09:00,,0830.2,4.99,0.00,29.4,28.3,00.0,38.3,31.3,15.6,-000.8,0032.24,0018.51,0017.23
2021-09-10 17:10:00,,0830.3,5.00,0.00,29.4,28.2,00.0,38.4,31.2,15.9,-000.7,0032.11,0018.57,0017.22
2021-09-10 17:11:00,,0830.2,5.00,0.00,29.4,26.7,00.0,38.3,30.8,16.0,-000.7,0032.53,0018.70,0017.24
2021-09-10 17:12:00,,0830.2,5.01,0.00,29.2,26.1,00.0,38.3,30.6,16.8,-000.6,0032.38,0018.83,0017.27
2021-09-10 17:13:00,,0830.2,5.00,0.00,29.2,26.5,00.0,38.3,30.8,17.1,-000.2,0032.90,0018.95,0017.30
2021-09-10 17:14:00,,0830.3,4.99,0.00,29.2,27.0,00.0,38.3,30.9,17.6,0000.5,0032.95,0019.03,0017.28
2021-09-10 17:15:00,,0830.3,4.99,0.00,29.2,27.4,00.0,38.3,31.0,17.5,0000.7,0033.64,0019.09,0017.29
2021-09-10 17:16:00,,0830.3,5.01,0.00,29.3,27.7,00.0,38.3,31.1,17.2,0000.4,0033.77,0019.22,0017.29
2021-09-10 17:17:00,,0830.3,5.00,0.00,29.3,28.0,00.0,38.3,31.1,17.9,0000.7,0034.22,0019.29,0017.28
2021-09-10 17:18:00,,0830.3,5.00,0.00,29.3,27.3,00.0,38.3,30.9,18.4,0000.5,0033.61,0019.24,0017.29
2021-09-10 17:19:00,,0830.2,5.00,0.00,29.2,26.0,00.0,38.3,30.6,18.1,0000.2,0033.10,0019.24,0017.30
2021-09-10 17:20:00,,0830.2,5.00,0.00,29.1,26.2,00.0,38.3,30.6,18.3,0000.4,0032.34,0019.29,0017.33
2021-09-10 17:21:00,,0830.2,5.00,0.00,29.1,26.7,00.0,38.2,30.8,18.6,0000.4,0032.32,0019.21,0017.32
2021-09-10 17:22:00,,0830.1,4.99,0.00,29.1,27.1,00.0,38.2,30.8,18.6,0000.4,0032.15,0019.13,0017.32
2021-09-10 17:23:00,,0830.1,5.00,0.00,29.1,27.4,00.0,38.2,30.9,18.5,0000.5,0032.54,0019.01,0017.29
2021-09-10 17:24:00,,0830.1,5.00,0.00,29.2,27.8,00.0,38.2,31.0,18.8,0000.5,0032.07,0018.97,0017.28
2021-09-10 17:25:00,,0830.1,4.99,0.00,29.3,28.1,00.0,38.2,31.1,18.5,0000.3,0033.41,0019.01,0017.30
2021-09-10 17:26:00,,0830.1,5.01,0.00,29.3,28.3,00.0,38.3,31.2,18.6,0000.2,0033.32,0018.95,0017.29
2021-09-10 17:27:00,,0830.1,5.00,0.00,29.3,27.6,00.0,38.3,31.0,18.7,0000.8,0033.93,0018.86,0017.29
2021-09-10 17:28:00,,0830.1,5.00,0.00,29.2,26.3,00.0,38.3,30.6,18.1,0000.5,0034.08,0018.82,0017.31
2021-09-10 17:29:00,,0830.1,5.00,0.00,29.1,26.4,00.0,38.2,30.6,18.5,0000.8,0034.10,0018.89,0017.30
2021-09-10 17:30:00,,0830.1,5.00,0.00,29.1,26.8,00.0,38.2,30.8,19.2,0001.1,0034.29,0018.91,0017.29
2021-09-10 17:31:00,,0830.1,5.01,0.00,29.1,27.1,00.0,38.2,30.8,18.7,0000.8,0034.69,0018.83,0017.23
2021-09-10 17:32:00,,0830.1,4.99,0.00,29.2,27.5,00.0,38.2,31.0,18.3,0000.7,0035.26,0018.89,0017.22
2021-09-10 17:33:00,,0830.1,5.01,0.00,29.2,27.8,00.0,38.2,31.1,18.3,0000.7,0035.98,0018.94,0017.24
2021-09-10 17:34:00,,0830.1,5.00,0.00,29.3,28.2,00.0,38.2,31.2,18.4,0000.5,0036.13,0018.97,0017.24
2021-09-10 17:35:00,,0830.1,4.99,0.00,29.3,27.4,00.0,38.2,31.0,18.1,0000.6,0036.37,0018.96,0017.24
2021-09-10 17:36:00,,0830.0,5.01,0.00,29.2,26.1,00.0,38.2,30.6,18.8,0000.3,0035.01,0018.87,0017.22
2021-09-10 17:37:00,,0830.0,5.00,0.00,29.1,26.3,00.0,38.2,30.6,18.6,0000.4,0033.90,0018.88,0017.21
2021-09-10 17:38:00,,0829.9,4.98,0.00,29.1,26.7,00.0,38.2,30.7,17.7,0000.2,0033.95,0018.88,0017.18
2021-09-10 17:39:00,,0829.9,5.01,0.00,29.1,27.1,00.0,38.2,30.8,18.0,0000.0,0033.31,0018.85,0017.15
2021-09-10 17:40:00,,0830.0,4.99,0.00,29.1,27.5,00.0,38.2,30.9,19.5,-000.1,0033.50,0018.80,0017.14
2021-09-10 17:41:00,,0830.0,5.00,0.00,29.2,27.8,00.0,38.2,31.0,19.9,0000.1,0035.10,0018.78,0017.14
2021-09-10 17:42:00,,0830.0,5.01,0.00,29.2,28.1,00.0,38.2,31.1,19.4,-000.1,0035.20,0018.79,0017.16
2021-09-10 17:43:00,,0830.0,5.01,0.00,29.3,28.1,00.0,38.2,31.1,20.5,0000.4,0035.17,0018.78,0017.19
2021-09-10 17:44:00,,0830.0,4.99,0.00,29.2,26.7,00.0,38.2,30.8,21.5,0000.6,0034.92,0018.76,0017.18
2021-09-10 17:45:00,,0830.0,5.00,0.00,29.1,26.0,00.0,38.2,30.5,21.6,0000.8,0033.89,0018.75,0017.20
2021-09-10 17:46:00,,0829.9,5.00,0.00,29.1,26.4,00.0,38.2,30.6,22.0,0000.5,0033.73,0018.80,0017.25
2021-09-10 17:47:00,,0829.9,5.01,0.00,29.1,26.8,00.0,38.2,30.8,22.1,0000.3,0034.15,0018.80,0017.27
2021-09-10 17:48:00,,0829.9,4.99,0.00,29.1,27.2,00.0,38.2,30.8,22.0,0000.5,0035.37,0018.86,0017.29
2021-09-10 17:49:00,,0829.9,5.00,0.00,29.1,27.6,00.0,38.2,31.0,21.5,0000.5,0034.46,0018.93,0017.35
2021-09-10 17:50:00,,0829.9,5.00,0.00,29.2,27.9,00.0,38.2,31.0,21.1,0001.0,0034.83,0018.99,0017.39
2021-09-10 17:51:00,,0829.8,5.00,0.00,29.3,27.9,00.0,38.2,31.1,21.4,0001.2,0034.76,0019.05,0017.42
2021-09-10 17:52:00,,0829.9,5.00,0.00,29.2,26.6,00.0,38.2,30.7,20.9,0001.0,0033.43,0019.08,0017.43
2021-09-10 17:53:00,,0829.8,5.00,0.00,29.1,25.9,00.0,38.2,30.5,21.8,0001.0,0032.65,0019.12,0017.44
2021-09-10 17:54:00,,0829.8,5.00,0.00,29.0,26.4,00.0,38.2,30.6,21.8,0000.5,0032.89,0019.11,0017.42
2021-09-10 17:55:00,,0829.8,5.01,0.00,29.0,26.8,00.0,38.1,30.7,21.9,0000.2,0032.84,0019.08,0017.40
2021-09-10 17:56:00,,0829.7,5.00,0.00,29.1,27.2,00.0,38.1,30.8,22.2,0000.4,0034.25,0019.11,0017.38
2021-09-10 17:57:00,,0829.7,5.00,0.00,29.1,27.6,00.0,38.1,30.9,21.9,0001.1,0035.98,0019.12,0017.30
2021-09-10 17:58:00,,0829.7,4.99,0.00,29.2,27.9,00.0,38.1,31.0,21.6,0001.5,0036.47,0019.17,0017.28
2021-09-10 17:59:00,,0829.6,5.00,0.00,29.2,27.9,00.0,38.2,31.0,21.1,0001.3,0036.00,0019.20,0017.27
